******** Week 359 almanac for PRN-1 ******** ID: 1 Health: 0 Eccentricity: 0.001554489136 Time of Applicability(s): 319488 Orbital Inclination(rad): 0.9583329256 Rate of Right Ascen(r/s): -8.091765626e-09 SQRT(A) (m 1/2): 5153.577148 Right Ascen at Week(rad): -3.021826056 Argument of Perigee(rad): 0.06323026865 Mean Anom(rad): 0.3770147275 Af0(s): 0.0002585102905 Af1(s/s): -7.275958e-12 week: 359 ******** Week 359 almanac for PRN-2 ******** ID: 2 Health: 0 Eccentricity: 0.01692724228 Time of Applicability(s): 319488 Orbital Inclination(rad): 0.963629953 Rate of Right Ascen(r/s): -7.931758961e-09 SQRT(A) (m 1/2): 5153.549316 Right Ascen at Week(rad): 3.098876009 Argument of Perigee(rad): -0.8171323913 Mean Anom(rad): 1.821390964 Af0(s): 3.617636719e-05 Af1(s/s): 7.275958e-12 week: 359 ******** Week 359 almanac for PRN-3 ******** ID: 3 Health: 0 Eccentricity: 0.006464958191 Time of Applicability(s): 319488 Orbital Inclination(rad): 0.9931171384 Rate of Right Ascen(r/s): -7.771752296e-09 SQRT(A) (m 1/2): 5153.587891 Right Ascen at Week(rad): -2.035099281 Argument of Perigee(rad): 1.201852601 Mean Anom(rad): -1.776117184 Af0(s): 0.0004408994751 Af1(s/s): -1.091394e-11 week: 359 ******** Week 359 almanac for PRN-4 ******** ID: 4 Health: 0 Eccentricity: 0.003718852997 Time of Applicability(s): 319488 Orbital Inclination(rad): 0.970502906 Rate of Right Ascen(r/s): -7.680319916e-09 SQRT(A) (m 1/2): 5153.689941 Right Ascen at Week(rad): -0.9641548625 Argument of Perigee(rad): -2.883758048 Mean Anom(rad): 1.214914283 Af0(s): 3.617636719e-05 Af1(s/s): 3.637979e-12 week: 359 ******** Week 359 almanac for PRN-5 ******** ID: 5 Health: 0 Eccentricity: 0.005386352539 Time of Applicability(s): 319488 Orbital Inclination(rad): 0.9796948065 Rate of Right Ascen(r/s): -7.931758961e-09 SQRT(A) (m 1/2): 5153.656738 Right Ascen at Week(rad): -2.094787087 Argument of Perigee(rad): 1.416681817 Mean Anom(rad): 1.872934367 Af0(s): -0.0001816355103 Af1(s/s): 0 week: 359 ******** Week 359 almanac for PRN-6 ******** ID: 6 Health: 0 Eccentricity: 0.003868103027 Time of Applicability(s): 319488 Orbital Inclination(rad): 0.9872268919 Rate of Right Ascen(r/s): -7.783181343e-09 SQRT(A) (m 1/2): 5153.590332 Right Ascen at Week(rad): -3.071428014 Argument of Perigee(rad): -0.5770685175 Mean Anom(rad): -0.4456483836 Af0(s): -0.0004831052368 Af1(s/s): 0 week: 359 ******** Week 359 almanac for PRN-7 ******** ID: 7 Health: 0 Eccentricity: 0.02044439316 Time of Applicability(s): 319488 Orbital Inclination(rad): 0.9513041777 Rate of Right Ascen(r/s): -7.817468486e-09 SQRT(A) (m 1/2): 5153.566895 Right Ascen at Week(rad): 0.04440567287 Argument of Perigee(rad): -1.993529375 Mean Anom(rad): -1.3201942 Af0(s): -0.0001213415649 Af1(s/s): -3.637979e-12 week: 359 ******** Week 359 almanac for PRN-8 ******** ID: 8 Health: 0 Eccentricity: 0.0115571022 Time of Applicability(s): 319488 Orbital Inclination(rad): 0.9433885972 Rate of Right Ascen(r/s): -7.943188008e-09 SQRT(A) (m 1/2): 5153.633789 Right Ascen at Week(rad): 2.091934093 Argument of Perigee(rad): 0.5222238357 Mean Anom(rad): 1.510118699 Af0(s): 0.0003843739014 Af1(s/s): -3.637979e-12 week: 359 ******** Week 359 almanac for PRN-9 ******** ID: 9 Health: 0 Eccentricity: 0.003365516663 Time of Applicability(s): 319488 Orbital Inclination(rad): 0.96464262 Rate of Right Ascen(r/s): -7.771752296e-09 SQRT(A) (m 1/2): 5153.734375 Right Ascen at Week(rad): -1.028373455 Argument of Perigee(rad): 2.066202838 Mean Anom(rad): 2.107918053 Af0(s): 0.000607461499 Af1(s/s): 0 week: 359 ******** Week 359 almanac for PRN-10 ******** ID: 10 Health: 0 Eccentricity: 0.0109462738 Time of Applicability(s): 319488 Orbital Inclination(rad): 0.9926617379 Rate of Right Ascen(r/s): -7.771752296e-09 SQRT(A) (m 1/2): 5153.60791 Right Ascen at Week(rad): -2.037608852 Argument of Perigee(rad): -2.255675307 Mean Anom(rad): -2.766083071 Af0(s): -0.0004657707275 Af1(s/s): 0 week: 359 ******** Week 359 almanac for PRN-11 ******** ID: 11 Health: 0 Eccentricity: 0.002219676971 Time of Applicability(s): 319488 Orbital Inclination(rad): 0.9640853536 Rate of Right Ascen(r/s): -8.023191341e-09 SQRT(A) (m 1/2): 5153.524414 Right Ascen at Week(rad): -3.052528517 Argument of Perigee(rad): -2.294161521 Mean Anom(rad): 0.6170351585 Af0(s): -0.0003368924194 Af1(s/s): 1.455192e-11 week: 359 ******** Week 359 almanac for PRN-12 ******** ID: 12 Health: 0 Eccentricity: 0.009037971497 Time of Applicability(s): 319488 Orbital Inclination(rad): 0.958938129 Rate of Right Ascen(r/s): -7.817468486e-09 SQRT(A) (m 1/2): 5153.719238 Right Ascen at Week(rad): 1.162028273 Argument of Perigee(rad): 1.55875293 Mean Anom(rad): -1.973574517 Af0(s): -0.0004800905395 Af1(s/s): 0 week: 359 ******** Week 359 almanac for PRN-13 ******** ID: 13 Health: 0 Eccentricity: 0.009994506836 Time of Applicability(s): 319488 Orbital Inclination(rad): 0.9761954128 Rate of Right Ascen(r/s): -7.600316584e-09 SQRT(A) (m 1/2): 5153.627441 Right Ascen at Week(rad): -0.8533191329 Argument of Perigee(rad): 0.9963617179 Mean Anom(rad): 1.260949061 Af0(s): 0.0005418918335 Af1(s/s): 0 week: 359 ******** Week 359 almanac for PRN-14 ******** ID: 14 Health: 0 Eccentricity: 0.006697177887 Time of Applicability(s): 319488 Orbital Inclination(rad): 0.9423220012 Rate of Right Ascen(r/s): -7.977475151e-09 SQRT(A) (m 1/2): 5153.59082 Right Ascen at Week(rad): 1.107457355 Argument of Perigee(rad): -2.752926639 Mean Anom(rad): -2.135601238 Af0(s): 0.0005818365723 Af1(s/s): 3.637979e-12 week: 359 ******** Week 359 almanac for PRN-15 ******** ID: 15 Health: 0 Eccentricity: 0.01661491394 Time of Applicability(s): 319488 Orbital Inclination(rad): 0.9424658119 Rate of Right Ascen(r/s): -8.011762293e-09 SQRT(A) (m 1/2): 5153.64209 Right Ascen at Week(rad): -1.17232759 Argument of Perigee(rad): 1.499834736 Mean Anom(rad): 0.5134738535 Af0(s): 0.0003074991211 Af1(s/s): 3.637979e-12 week: 359 ******** Week 359 almanac for PRN-16 ******** ID: 16 Health: 0 Eccentricity: 0.01504945755 Time of Applicability(s): 319488 Orbital Inclination(rad): 0.9580752648 Rate of Right Ascen(r/s): -7.840326581e-09 SQRT(A) (m 1/2): 5153.587402 Right Ascen at Week(rad): 1.179017035 Argument of Perigee(rad): 0.929309605 Mean Anom(rad): 2.533854259 Af0(s): 0.0001695767212 Af1(s/s): 7.275958e-12 week: 359 ******** Week 359 almanac for PRN-17 ******** ID: 17 Health: 0 Eccentricity: 0.01266622543 Time of Applicability(s): 319488 Orbital Inclination(rad): 0.9591298766 Rate of Right Ascen(r/s): -7.817468486e-09 SQRT(A) (m 1/2): 5153.541504 Right Ascen at Week(rad): 2.196570233 Argument of Perigee(rad): -1.123361545 Mean Anom(rad): 1.435613521 Af0(s): -5.727924805e-05 Af1(s/s): -1.091394e-11 week: 359 ******** Week 359 almanac for PRN-18 ******** ID: 18 Health: 0 Eccentricity: 0.00574016571 Time of Applicability(s): 319488 Orbital Inclination(rad): 0.9721747054 Rate of Right Ascen(r/s): -7.943188008e-09 SQRT(A) (m 1/2): 5153.59375 Right Ascen at Week(rad): -3.076385364 Argument of Perigee(rad): -2.861783099 Mean Anom(rad): -0.5510076969 Af0(s): -0.000328602002 Af1(s/s): 1.091394e-11 week: 359 ******** Week 359 almanac for PRN-19 ******** ID: 19 Health: 0 Eccentricity: 0.01111793518 Time of Applicability(s): 319488 Orbital Inclination(rad): 0.9583389177 Rate of Right Ascen(r/s): -7.828897533e-09 SQRT(A) (m 1/2): 5153.670898 Right Ascen at Week(rad): 2.240468823 Argument of Perigee(rad): 2.928558077 Mean Anom(rad): -3.025247552 Af0(s): 0.0005464138794 Af1(s/s): 0 week: 359 ******** Week 359 almanac for PRN-20 ******** ID: 20 Health: 255 Eccentricity: 0.0003156661987 Time of Applicability(s): 319488 Orbital Inclination(rad): 0.960058654 Rate of Right Ascen(r/s): -7.794610391e-09 SQRT(A) (m 1/2): 5153.647461 Right Ascen at Week(rad): -1.022741618 Argument of Perigee(rad): 1.186629639 Mean Anom(rad): 1.093289005 Af0(s): 1.281246338e-05 Af1(s/s): 2.546585e-11 week: 359 ******** Week 359 almanac for PRN-21 ******** ID: 21 Health: 0 Eccentricity: 0.0007247924805 Time of Applicability(s): 319488 Orbital Inclination(rad): 0.9625333965 Rate of Right Ascen(r/s): -8.091765626e-09 SQRT(A) (m 1/2): 5153.712891 Right Ascen at Week(rad): -2.02869521 Argument of Perigee(rad): -0.3595799273 Mean Anom(rad): -2.235749286 Af0(s): 0.0003180505615 Af1(s/s): 3.637979e-12 week: 359 ******** Week 359 almanac for PRN-22 ******** ID: 22 Health: 0 Eccentricity: 0.0121011734 Time of Applicability(s): 319488 Orbital Inclination(rad): 0.9575179983 Rate of Right Ascen(r/s): -7.828897533e-09 SQRT(A) (m 1/2): 5153.567871 Right Ascen at Week(rad): 1.182368124 Argument of Perigee(rad): -0.9942730922 Mean Anom(rad): 2.084256324 Af0(s): -3.316166992e-05 Af1(s/s): 3.637979e-12 week: 359 ******** Week 359 almanac for PRN-23 ******** ID: 23 Health: 0 Eccentricity: 0.006021976471 Time of Applicability(s): 319488 Orbital Inclination(rad): 0.9876703082 Rate of Right Ascen(r/s): -7.828897533e-09 SQRT(A) (m 1/2): 5153.660156 Right Ascen at Week(rad): -2.069676766 Argument of Perigee(rad): -2.737935123 Mean Anom(rad): -1.680709272 Af0(s): 0.0004876272827 Af1(s/s): 3.637979e-12 week: 359 ******** Week 359 almanac for PRN-24 ******** ID: 24 Health: 0 Eccentricity: 0.01788806915 Time of Applicability(s): 319488 Orbital Inclination(rad): 0.9353052375 Rate of Right Ascen(r/s): -8.023191341e-09 SQRT(A) (m 1/2): 5153.589355 Right Ascen at Week(rad): -0.06396168088 Argument of Perigee(rad): 1.134284417 Mean Anom(rad): -0.3378813646 Af0(s): -8.441152344e-05 Af1(s/s): 1.455192e-11 week: 359 ******** Week 359 almanac for PRN-25 ******** ID: 25 Health: 0 Eccentricity: 0.01294279099 Time of Applicability(s): 319488 Orbital Inclination(rad): 0.9473493835 Rate of Right Ascen(r/s): -7.943188008e-09 SQRT(A) (m 1/2): 5153.665527 Right Ascen at Week(rad): 1.068237856 Argument of Perigee(rad): 1.15714882 Mean Anom(rad): -2.111725666 Af0(s): 0.0003489512085 Af1(s/s): -3.637979e-12 week: 359 ******** Week 359 almanac for PRN-26 ******** ID: 26 Health: 0 Eccentricity: 0.01099920273 Time of Applicability(s): 319488 Orbital Inclination(rad): 0.9281686315 Rate of Right Ascen(r/s): -8.160339911e-09 SQRT(A) (m 1/2): 5153.648926 Right Ascen at Week(rad): 0.9937828625 Argument of Perigee(rad): 0.709374735 Mean Anom(rad): -2.933113955 Af0(s): -0.0002622786621 Af1(s/s): -7.275958e-12 week: 359 ******** Week 359 almanac for PRN-27 ******** ID: 27 Health: 0 Eccentricity: 0.01434135437 Time of Applicability(s): 319488 Orbital Inclination(rad): 0.9525026002 Rate of Right Ascen(r/s): -7.874613723e-09 SQRT(A) (m 1/2): 5153.617676 Right Ascen at Week(rad): 2.12392336 Argument of Perigee(rad): 0.8802248414 Mean Anom(rad): 1.609571287 Af0(s): -4.069841309e-05 Af1(s/s): -1.091394e-11 week: 359 ******** Week 359 almanac for PRN-28 ******** ID: 28 Health: 0 Eccentricity: 0.0004138946533 Time of Applicability(s): 319488 Orbital Inclination(rad): 0.9622517672 Rate of Right Ascen(r/s): -7.714607058e-09 SQRT(A) (m 1/2): 5153.73584 Right Ascen at Week(rad): 0.01861187579 Argument of Perigee(rad): 0.04487118511 Mean Anom(rad): -1.027184021 Af0(s): -0.0004657707275 Af1(s/s): 7.275958e-12 week: 359 ******** Week 359 almanac for PRN-29 ******** ID: 29 Health: 0 Eccentricity: 0.003365039825 Time of Applicability(s): 319488 Orbital Inclination(rad): 0.9617903745 Rate of Right Ascen(r/s): -7.783181343e-09 SQRT(A) (m 1/2): 5153.716309 Right Ascen at Week(rad): 2.213279613 Argument of Perigee(rad): 2.738978874 Mean Anom(rad): 1.479442828 Af0(s): -0.0002916719604 Af1(s/s): 7.275958e-12 week: 359 ******** Week 359 almanac for PRN-30 ******** ID: 30 Health: 0 Eccentricity: 0.008039951324 Time of Applicability(s): 319488 Orbital Inclination(rad): 0.9365755653 Rate of Right Ascen(r/s): -7.977475151e-09 SQRT(A) (m 1/2): 5153.700684 Right Ascen at Week(rad): 0.03548154489 Argument of Perigee(rad): -2.322217716 Mean Anom(rad): -1.481276789 Af0(s): 0.0001055144043 Af1(s/s): 1.455192e-11 week: 359 ******** Week 359 almanac for PRN-31 ******** ID: 31 Health: 0 Eccentricity: 0.01080703735 Time of Applicability(s): 319488 Orbital Inclination(rad): 0.9550672243 Rate of Right Ascen(r/s): -7.794610391e-09 SQRT(A) (m 1/2): 5153.718262 Right Ascen at Week(rad): 0.06859358381 Argument of Perigee(rad): 0.9387715251 Mean Anom(rad): -2.422690461 Af0(s): -0.0001303856567 Af1(s/s): 3.637979e-12 week: 359 ******** Week 359 almanac for PRN-32 ******** ID: 32 Health: 0 Eccentricity: 0.009321212768 Time of Applicability(s): 319488 Orbital Inclination(rad): 0.9676985974 Rate of Right Ascen(r/s): -7.714607058e-09 SQRT(A) (m 1/2): 5153.68457 Right Ascen at Week(rad): -1.011385442 Argument of Perigee(rad): -2.00171872 Mean Anom(rad): 2.191211037 Af0(s): -6.029394531e-05 Af1(s/s): 1.818989e-11 week: 359